www.pogodaiklimat.ru

Погода и климат >> Архив погоды >> Испания >> Понферрада


ПОГОДА в Понферраде

  • Прогноз погоды в Понферраде
  • Монитор погоды в Понферраде

АРХИВ ПОГОДЫ в Понферраде

Время (UTC), дата Ветер
(напр.,м/с)
 
Видим.   Явления Облачность Т
(С)
Тd
(С)
f
(%)
Тe
(С)
Тes
(С)
Комфортность P
(гПа)
Po
(гПа)
Тmin
(С)
Tmax
(С)
R
(мм)
R24
(мм)
S
(см)
07 11.07 ЮЗ 1 20 км н/о +19.4 +14.6 74 +23 +23 комфорт 1016.5 954.0
08 11.07 ЮЗ 1 20 км н/о +21.1 +14.7 67 +24 +24 комфорт 1016.2 954.1
09 11.07 З 1 30 км ясно +23.6 +15.1 59 +26 +38 жарко 1015.5 954.0
10 11.07 З 1 20 км н/о +25.7 +15.7 54 +29 +29 душно 1014.8 953.7
11 11.07 З 1 20 км н/о +28.4 +15.0 44 +31 +31 душно 1013.8 953.3
12 11.07 СЗ 2 30 км 1/1 1000 м
[Cu hum]
+30.4 +12.3 33 +31 +50 жарко 1013.0 952.9
13 11.07 З 3 20 км н/о +31.9 +9.4 25 +31 +31 жарко 1012.2 952.3
14 11.07 З 3 20 км н/о +33.5 +7.5 20 +32 +32 жарко 1011.3 951.8
15 11.07 СЗ 3 30 км 1/1 1000 м
[Cu hum]
+34.2 +11.4 25 +34 +45 очень
жарко
1010.7 951.4
16 11.07 З 3 20 км н/о +34.5 +11.0 24 +34 +34 очень
жарко
1010.3 951.1
17 11.07 СЗ 2 20 км н/о +34.7 +10.5 23 +34 +34 очень
жарко
1010.1 950.9
18 11.07 СЗ 3 20 км н/о +33.8 +12.7 28 +34 +34 очень
жарко
1010.3 951.0 +34.8
19 11.07 З 2 20 км н/о +32.5 +12.2 29 +33 +33 жарко 1010.9 951.3
20 11.07 З 2 20 км н/о +29.6 +12.9 36 +31 +31 жарко 1012.0 951.8
21 11.07 З 1 20 км н/о +27.3 +13.6 43 +29 +29 жарко 1013.5 952.8
22 11.07 Ю 1 20 км н/о +25.8 +13.0 45 +28 +28 жарко 1014.6 953.5
23 11.07 ЮВ 1 20 км н/о +23.6 +13.5 53 +26 +26 жарко 1015.4 953.8
00 12.07 ЮВ 1 20 км н/о +22.0 +13.1 57 +25 +25 комфорт 1015.8 953.9
01 12.07 Ю 1 20 км н/о +21.0 +12.7 59 +25 +25 комфорт 1015.8 953.7
02 12.07 В 1 20 км н/о +19.5 +12.7 65 +22 +22 комфорт 1016.1 953.6
03 12.07 В 1 20 км н/о +18.4 +12.8 70 +20 +20 1016.2 953.5
04 12.07 В 1 20 км н/о +17.7 +12.8 73 +19 +19 1016.7 953.8
05 12.07 СЗ 1 20 км н/о +16.7 +12.6 77 +18 +18 1017.3 954.2
06 12.07 СВ 1 30 км ясно +17.2 +13.1 77 +19 +20 1017.6 954.6 +16.5
07 12.07 ЮЗ 1 19 км н/о +18.7 +12.9 69 +21 +21 комфорт 1017.5 954.8
08 12.07 ЮЗ 1 20 км н/о +21.5 +13.7 61 +24 +24 комфорт 1016.9 954.8
09 12.07 З 1 30 км ясно +23.8 +14.2 55 +26 +38 жарко 1016.0 954.4
10 12.07 З 2 20 км н/о +26.3 +14.4 48 +29 +29 жарко 1015.1 954.1
11 12.07 З 2 20 км н/о +29.0 +14.8 42 +31 +31 жарко 1014.3 953.9
12 12.07 З 1 30 км 4/0
[Ci]
+31.3 +14.0 35 +33 +54 опасность
солнечного
удара
1013.2 953.3
13 12.07 З 2 20 км н/о +33.8 +11.6 26 +34 +34 очень
жарко
1012.5 953.0
14 12.07 З 3 20 км н/о +35.3 +12.3 25 +35 +35 очень
жарко
1011.6 952.5
15 12.07 СЗ 4 30 км 8/0
[Cs]
+36.2 +11.8 23 +36 +44 очень
жарко
1010.8 951.9
16 12.07 СЗ 2 20 км н/о +36.9 +12.4 23 +37 +37 очень
жарко
1010.1 951.4
17 12.07 СЗ 3 20 км н/о +35.5 +13.6 27 +36 +36 очень
жарко
1010.5 951.5 0.0
18 12.07 З 2 20 км дымка н/о +33.5 +16.4 36 +36 +36 очень
душно
1011.2 951.9 +37.2 0.0
19 12.07 З 2 20 км н/о +31.7 +16.4 40 +35 +35 очень
душно
1012.2 952.5
20 12.07 В 1 20 км н/о +30.6 +16.2 42 +34 +34 очень
душно
1012.8 952.8
21 12.07 В 1 20 км н/о +28.5 +16.7 49 +32 +32 душно 1014.2 953.7
22 12.07 ЮВ 2 20 км в посл. час морось н/о +28.0 +15.3 46 +31 +31 душно 1014.1 953.5 0.0
23 12.07 Ю 2 20 км н/о +27.3 +15.0 47 +30 +30 душно 1014.1 953.4
00 13.07 ЮВ 1 20 км дымка н/о +27.0 +14.1 45 +29 +29 жарко 1013.9 953.1 0.0
01 13.07 ЮВ 1 20 км н/о +25.4 +15.4 54 +28 +28 жарко 1013.1 952.1
02 13.07 В 1 20 км н/о +23.8 +15.3 59 +27 +27 жарко 1013.0 951.7
03 13.07 СВ 1 20 км н/о +22.5 +14.9 62 +26 +26 жарко 1013.4 951.8
04 13.07 СЗ 1 20 км н/о +21.8 +14.9 65 +25 +25 комфорт 1013.6 951.8
05 13.07 В 1 20 км н/о +20.8 +14.7 68 +25 +25 комфорт 1014.0 952.0
06 13.07 В 1 20 км дымка н/о +20.8 +15.6 72 +25 +25 комфорт 1014.3 952.3 +20.4
07 13.07 З 2 20 км н/о +22.6 +16.2 67 +27 +27 душно 1013.9 952.3
08 13.07 ЮЗ 2 20 км н/о +24.5 +15.4 57 +27 +27 жарко 1013.3 952.1
09 13.07 ЮЗ 2 20 км н/о +26.9 +16.5 53 +30 +30 душно 1012.3 951.6
10 13.07 В 3 20 км н/о +31.1 +12.5 32 +32 +32 жарко 1010.8 950.9
11 13.07 ЮВ 4 20 км н/о +32.1 +11.3 28 +32 +32 жарко 1010.2 950.5
12 13.07 ЮВ 3 20 км н/о +34.2 +12.0 26 +34 +34 очень
жарко
1008.8 949.6
13 13.07 ЮВ 2 20 км н/о +35.2 +10.9 23 +35 +35 очень
жарко
1007.2 948.3
14 13.07 Ю 7 10 км н/о +32.2 +7.1 21 +31 +31 жарко 1008.5 948.9
15 13.07 З 5 20 км н/о +22.3 +12.3 53 +25 +25 комфорт 1013.6 951.8
16 13.07 З 2 6000 м дождь н/о +20.6 +14.9 70 +24 +24 комфорт 1015.0 952.9 0.8
17 13.07 В 2 20 км слаб. дождь н/о +20.3 +15.9 76 +24 +24 комфорт 1014.3 952.2 0.2
18 13.07 ЮЗ 2 19 км слаб. дождь н/о +20.9 +15.4 71 +25 +25 комфорт 1015.7 953.6 +35.4 1
19 13.07 З 2 20 км н/о +21.4 +15.2 68 +25 +25 комфорт 1015.7 953.7
20 13.07 З 1 20 км н/о +20.9 +14.3 66 +25 +25 комфорт 1015.3 953.2
21 13.07 В 1 20 км н/о +19.3 +15.0 76 +22 +22 комфорт 1015.6 953.2
22 13.07 СЗ 1 20 км н/о +18.4 +14.5 78 +20 +20 1015.6 953.0
23 13.07 Ю 1 20 км н/о +17.8 +14.7 82 +19 +19 1016.1 953.3
00 14.07 ЮВ 1 20 км н/о +17.1 +13.8 81 +18 +18 1016.5 953.5
01 14.07 Ю 1 20 км н/о +16.9 +13.6 81 +18 +18 1016.2 953.2
02 14.07 ЮВ 1 20 км н/о +16.2 +13.7 85 +17 +17 1016.3 953.2
03 14.07 С 1 20 км н/о +16.3 +13.8 85 +18 +18 1016.3 953.2
04 14.07 С 1 20 км н/о +15.9 +13.7 87 +17 +17 1016.1 952.9
05 14.07 ЮВ 1 20 км н/о +15.0 +13.0 88 +15 +15 1016.5 953.1
06 14.07 С 1 20 км н/о +15.4 +13.6 89 +17 +17 1016.3 953.0 +14.9
07 14.07 З 1 20 км н/о +16.7 +14.2 85 +18 +18 1016.4 953.4
08 14.07 З 1 20 км н/о +18.2 +14.9 81 +20 +20 1016.0 953.3
09 14.07 СЗ 1 20 км н/о +20.7 +15.3 71 +25 +25 комфорт 1015.4 953.3
10 14.07 З 2 20 км н/о +23.2 +15.5 62 +27 +27 душно 1014.6 953.0
11 14.07 З 2 20 км н/о +26.0 +15.1 51 +29 +29 душно 1013.6 952.6
12 14.07 З 2 20 км н/о +28.2 +13.3 40 +30 +30 жарко 1012.7 952.2
13 14.07 З 3 20 км н/о +30.1 +12.1 33 +31 +31 жарко 1011.6 951.5
14 14.07 З 2 20 км н/о +32.0 +14.2 34 +34 +34 душно 1010.6 951.0
15 14.07 З 3 20 км н/о +32.3 +14.0 33 +34 +34 душно 1010.4 950.8
16 14.07 З 3 20 км н/о +31.8 +15.7 38 +34 +34 душно 1010.4 950.8
17 14.07 З 4 20 км н/о +31.3 +15.7 39 +34 +34 душно 1010.4 950.7
18 14.07 СЗ 4 20 км н/о +30.3 +16.0 42 +33 +33 душно 1010.9 951.0 +32.6
19 14.07 З 4 20 км н/о +28.7 +15.2 44 +31 +31 жарко 1011.4 951.1
20 14.07 З 3 20 км н/о +26.2 +16.2 54 +30 +30 душно 1012.3 951.5
21 14.07 З 2 20 км н/о +24.2 +17.4 66 +28 +28 душно 1013.5 952.3
22 14.07 З 2 20 км н/о +23.1 +17.1 69 +28 +28 душно 1014.0 952.5
23 14.07 З 1 20 км н/о +22.3 +16.3 69 +27 +27 душно 1014.3 952.6
00 15.07 ЮВ 2 20 км н/о +20.6 +16.0 75 +25 +25 комфорт 1014.8 952.7
01 15.07 ЮВ 2 20 км н/о +19.6 +15.7 78 +22 +22 комфорт 1014.9 952.6
02 15.07 Ю 1 20 км н/о +18.7 +15.4 81 +21 +21 комфорт 1015.0 952.5
03 15.07 ЮВ 1 20 км н/о +17.8 +15.1 84 +19 +19 1015.1 952.4
04 15.07 СЗ 1 20 км н/о +17.3 +14.9 86 +19 +19 1015.1 952.3
05 15.07 Ю 1 19 км н/о +16.4 +14.4 88 +18 +18 1015.7 952.7
06 15.07 В 1 15 км 1/1 1000 м
[St]
+16.7 +14.7 88 +18 +19 1015.9 952.9 +16.3
07 15.07 З 1 20 км н/о +18.0 +14.9 82 +19 +19 1016.0 953.3
08 15.07 З 1 20 км н/о +19.8 +14.8 73 +23 +23 комфорт 1015.7 953.4
09 15.07 З 2 20 км 1/1 600 м
[Cu hum Ci sp]
+21.7 +15.5 68 +25 +34 комфорт 1015.2 953.3
10 15.07 ЮЗ 1 20 км н/о +24.1 +14.8 56 +27 +27 жарко 1014.4 953.0
11 15.07 З 2 20 км н/о +25.8 +15.2 52 +29 +29 душно 1013.5 952.5
12 15.07 З 3 25 км 4/1 1000 м
[Cu hum Ci sp]
+27.7 +14.0 43 +30 +44 жарко 1012.8 952.2
13 15.07 З 3 20 км н/о +29.2 +8.8 28 +29 +29 жарко 1012.2 951.8
14 15.07 З 3 20 км н/о +30.8 +5.2 20 +29 +29 жарко 1011.5 951.4
15 15.07 З 2 30 км 4/1 1000 м
[Cu med, cong Ci sp]
+32.0 +8.3 23 +31 +42 жарко 1010.9 951.1
16 15.07 З 3 20 км н/о +31.7 +14.4 35 +33 +33 жарко 1010.6 950.9
17 15.07 СЗ 4 20 км н/о +30.7 +14.8 38 +33 +33 душно 1010.6 950.7
18 15.07 З 4 20 км н/о +29.3 +14.3 40 +31 +31 жарко 1011.2 951.0 +32.4
19 15.07 З 3 20 км н/о +28.0 +15.6 47 +31 +31 душно 1011.7 951.3
20 15.07 З 2 20 км н/о +26.0 +16.0 54 +29 +29 душно 1012.7 951.8
21 15.07 З 3 20 км н/о +23.8 +16.1 62 +27 +27 жарко 1013.8 952.4
22 15.07 ЮЗ 1 20 км н/о +22.8 +15.9 65 +27 +27 душно 1014.5 952.9
23 15.07 ЮЗ 1 20 км н/о +21.7 +15.5 68 +25 +25 комфорт 1015.1 953.2
00 16.07 ЮВ 1 20 км н/о +20.7 +15.7 73 +25 +25 комфорт 1015.3 953.2
01 16.07 ЮЗ 1 20 км н/о +19.9 +15.1 74 +23 +23 комфорт 1015.8 953.5
02 16.07 Ю 2 20 км н/о +19.1 +15.0 77 +21 +21 комфорт 1015.6 953.1
03 16.07 ЮЗ 1 2700 м н/о +18.3 +14.4 78 +20 +20 1015.5 952.9
04 16.07 З 1 20 км н/о +17.7 +14.2 80 +19 +19 1015.9 953.1
05 16.07 ЮВ 1 19 км н/о +16.5 +13.8 84 +18 +18 1016.2 953.1
06 16.07 З 1 18 км 1/0 2000 м
[Ac cast]
+16.8 +14.3 85 +18 +19 1016.3 953.3 +16.3
07 16.07 СЗ 2 20 км н/о +17.8 +14.5 81 +19 +19 1016.3 953.5
08 16.07 З 1 20 км н/о +19.9 +14.9 73 +23 +23 комфорт 1015.9 953.6
09 16.07 З 2 25 км 1/0
[Ci fib]
+22.5 +15.3 64 +26 +37 жарко 1015.0 953.3
10 16.07 З 2 20 км н/о +24.9 +14.4 52 +27 +27 жарко 1013.9 952.7
11 16.07 З 2 20 км н/о +27.3 +11.7 38 +28 +28 жарко 1012.9 952.2
12 16.07 СЗ 2 30 км 8/1 1000 м
[Cu hum Ac cast Cs]
+28.8 +10.0 31 +29 +39 жарко 1012.0 951.6
13 16.07 СЗ 2 20 км н/о +30.8 +10.7 29 +31 +31 жарко 1010.8 950.8
14 16.07 З 3 20 км н/о +31.3 +10.6 28 +31 +31 жарко 1010.2 950.4
15 16.07 З 2 30 км 8/1 1000 м
[Cu hum Ac cast Cs]
+32.5 +11.6 28 +33 +40 жарко 1009.6 950.1
16 16.07 З 4 20 км н/о +31.4 +15.0 37 +34 +34 душно 1009.5 949.8
17 16.07 З 4 20 км н/о +31.0 +15.8 40 +34 +34 душно 1009.4 949.7
18 16.07 З 5 20 км н/о +30.3 +16.0 42 +33 +33 душно 1009.8 949.9 +32.8
19 16.07 З 2 20 км н/о +28.4 +16.0 47 +32 +32 душно 1010.5 950.2
20 16.07 З 2 20 км н/о +25.7 +15.7 54 +29 +29 душно 1011.4 950.5
21 16.07 З 2 20 км н/о +23.9 +15.4 59 +27 +27 жарко 1012.8 951.5
22 16.07 ЮЗ 1 20 км н/о +22.9 +15.2 62 +27 +27 душно 1013.3 951.8
23 16.07 В 1 20 км н/о +21.9 +15.3 66 +25 +25 комфорт 1014.1 952.3
00 17.07 З 1 19 км н/о +20.8 +15.1 70 +25 +25 комфорт 1014.4 952.4
01 17.07 ЮЗ 1 11 км н/о +19.9 +14.7 72 +23 +23 комфорт 1014.9 952.6
02 17.07 СЗ 1 17 км н/о +19.1 +14.8 76 +22 +22 комфорт 1014.9 952.5
03 17.07 З 1 15 км н/о +18.2 +14.5 79 +20 +20 1015.0 952.4
04 17.07 ЮЗ 1 18 км н/о +17.7 +14.6 82 +19 +19 1015.0 952.3
05 17.07 З 1 11 км н/о +17.3 +14.6 84 +18 +18 1015.4 952.6
06 17.07 ЮЗ 1 20 км 6/6 300 м
[St]
+17.0 +14.5 85 +18 +18 1015.8 952.9 +16.9
07 17.07 СЗ 1 16 км н/о +17.4 +14.5 83 +18 +18 1016.2 953.3
08 17.07 С 1 18 км н/о +18.5 +15.0 80 +20 +20 1016.0 953.4
09 17.07 СЗ 1 15 км 8/8 300 м
[St]
+19.4 +15.1 76 +22 +24 комфорт 1015.8 953.4
10 17.07 ЮЗ 1 19 км н/о +21.9 +15.5 67 +26 +26 душно 1014.9 953.1
11 17.07 З 2 11 км н/о +24.3 +15.5 58 +27 +27 жарко 1014.2 952.9
12 17.07 З 3 30 км 1/1 600 м
[Cu med, cong Ci fib]
+26.7 +15.1 49 +29 +45 жарко 1013.2 952.4
13 17.07 З 3 20 км н/о +28.5 +15.4 45 +31 +31 душно 1012.4 952.0
14 17.07 З 3 20 км н/о +29.5 +16.3 45 +33 +33 душно 1011.8 951.7
15 17.07 З 5 30 км 1/1 1000 м
[Cu med, cong Ci fib]
+29.3 +16.1 45 +32 +40 душно 1011.6 951.4
16 17.07 З 6 20 км н/о +28.3 +15.6 46 +31 +31 душно 1011.9 951.5
17 17.07 З 5 20 км н/о +27.2 +14.2 45 +29 +29 жарко 1012.4 951.7
18 17.07 З 4 20 км н/о +26.4 +13.2 44 +28 +30 жарко 1012.7 951.8 +29.7
19 17.07 З 4 20 км н/о +24.6 +13.2 49 +27 +27 жарко 1013.7 952.4
20 17.07 СЗ 2 20 км н/о +22.2 +13.0 56 +25 +25 комфорт 1014.9 953.1
21 17.07 СЗ 2 20 км н/о +20.1 +13.1 64 +23 +23 комфорт 1016.6 954.2
22 17.07 СЗ 1 20 км н/о +18.9 +12.9 68 +21 +21 комфорт 1017.2 954.5
23 17.07 СЗ 2 20 км н/о +18.0 +12.4 70 +19 +19 1017.7 954.8
00 18.07 Ю 1 20 км н/о +17.2 +12.3 73 +18 +18 1018.3 955.2
01 18.07 З 1 20 км н/о +16.6 +12.1 75 +17 +17 1018.6 955.4
02 18.07 ЮЗ 1 20 км н/о +15.7 +11.9 78 +17 +17 1018.7 955.3
03 18.07 З 1 20 км н/о +15.5 +11.5 77 +16 +16 1019.1 955.6
04 18.07 З 1 20 км н/о +15.1 +10.5 74 +16 +16 1019.3 955.7
05 18.07 З 2 3100 м н/о +14.8 +10.4 75 +15 +15 1019.6 955.9
06 18.07 З 2 10 км 9/9 300 м
[St]
+14.3 +10.3 77 +14 +14 1019.8 956.0 +14.3

 

Местоположение метеостанции Понферрада (Испания): широта 42.53 долгота -6.58 высота над уровнем моря 550 м.

В архиве по умолчанию представлена погода в Понферраде за последнюю неделю. Архивные данные за месяц целиком и за предыдущие месяцы, начиная с января 2011 года, Вы можете получить, выбрав интересующий диапазон дат из раскрывающегося списка и нажав кнопку "Ввод!".


*Определитесь, кто Вы:
робот инопланетянин человек

Внимание! Время в таблицах - всемирное. Для получения местного времени необходимо прибавить поправку, которая равна 1 ч.

Смотрите также архив погоды в соседних городах и на ближайших метеорологических станциях:

Погода в Лагунас-де-Сомоса (Испания) (35 км)
Погода в Пуэрто-де-Лейтарьегосе (Испания) (53 км)
Погода в Побра-де-Тривес-Сане (Испания) (61 км)
Погода в Вильярдесьервосе (Испания) (70 км)
Погода в Леоне (Испания) (76 км)
Погода в Брагансе (Португалия) (82 км)
Погода в Вальгранде-Пахаресе (Испания) (82 км)
Погода в Бенавенте (Испания) (95 км)
Погода в Луго (Испания) (97 км)
Погода в Хинсо-де-Лимии (Испания) (107 км)

Пояснения к столбцам:

Ветер - указаны скорость ветра в м/с - средняя за 10 мин, порывы в срок и между сроками (в фигурных скобках) и направление, откуда дует ветер: С - северный, СВ - северо-восточный, В - восточный, ЮВ - юго-восточный, Ю - южный, ЮЗ - юго-западный, З - западный, СЗ - северо-западный.
Видимость - горизонтальная дальность видимости в метрах или километрах. При видимости от 1 до 10 км при отсутствии осадков обычно наблюдается дымка, при ухудшении видимости до 1 км и менее - туман. В сухую погоду видимость может ухудшаться дымом, пылью или мглою.
Явления - указаны атмосферные явления, наблюдавшиеся в срок или в последний час перед сроком; фигурными скобками обозначены явления, наблюдавшиеся между сроками (за 1-3 часа до срока); квадратными скобками обозначены град или гололедные отложения с указанием их диаметра в мм.
Облачность - указаны через наклонную черту общая и нижняя облачность в баллах и высота нижней границы облаков в метрах; квадратными скобками обозначены формы облаков: Ci - перистые, Cs - перисто-слоистые, Cc - перисто-кучевые, Ac - высококучевые, As - высокослоистые, Sc - слоисто-кучевые, Ns - слоисто-дождевые, Cu - кучевые, Cb - кучево-дождевые. Подробнее классификацию облаков см. в Атласе облаков (PDF).
T - Температура воздуха - температура, измеренная на высоте 2 м над землей.
Td - Температура точки росы - температура, при понижении до которой содержащийся в воздухе водяной пар достигнет насыщения.
f - Относительная влажность воздуха - влажноcть воздуха, измеренная на высоте 2 м над землей.
Te - Эффективная температура - температура, которую ощущает одетый по сезону человек в тени. Характеристика душности погоды. При расчете учитывается влияние влажности воздуха и скорости ветра на теплоощущения человека.
Tes - Эффективная температура на солнце - температура, которую ощущает человек, с поправкой на солнечный нагрев. Характеристика знойности погоды. Зависит от высоты солнца над горизонтом, облачности и скорости ветра. Ночью, в пасмурную погоду, а также при ветре 12 м/с и более поправка равна нулю.
P - Атмосферное давление - приведенное к уровню моря атмосферное давление.
Po - Атмосферное давление - измеренное на уровне метеостанции атмосферное давление.
Tmin - Минимальная температура - минимум температуры воздуха на высоте 2 м над землей.
Tmax - Максимальная температура - максимум температуры воздуха на высоте 2 м над землей.
R - Количество осадков - Количество выпавших осадков за период времени, мм. При наведении курсора мыши на число - период времени, за который выпало указанное количество осадков.
R24 - Количество осадков - Количество выпавших осадков за 24 часа, мм.
S - Снежный покров - Высота снежного покрова, см. При наведении курсора мыши на число - состояние снежного покрова и степень покрытия местности в баллах.